Erie, PA

8:57 PM EST on November 16, 2019 (GMT -0500)
Erie International

Weather History for KERI - September, 2019

Change the Weather History Date:

Tuesday, September 10, 2019

  Actual Average Record
Temperature  
Mean Temperature 72 °F 66 °F  
Max Temperature 86 °F 74 °F 93 °F (1964)
Min Temperature 57 °F 58 °F 40 °F (1956)
Degree Days  
Heating Degree Days 0 2  
Month to date heating degree days 8 14  
Since 1 July heating degree days 9 32  
Cooling Degree Days 6 3  
Month to date cooling degree days 33 36  
Year to date cooling degree days 723 594  
Growing Degree Days 22 (Base 50)    
Moisture  
Dew Point 58 °F    
Average Humidity 62    
Maximum Humidity 78    
Minimum Humidity 47    
Precipitation  
Precipitation 0.00 in 0.15 in 1.57 in (2016)
Month to date precipitation 1.31 1.36  
Year to date precipitation 27.63 27.19  
Snow  
Snow 0.00 in 0.00 in - ()
Month to date snowfall 0.0 0.0  
Since 1 July snowfall 0.0 0.0  
Since 1 September snowfall 0.0 0.0  
Snow Depth 0.00 in    
Sea Level Pressure  
Sea Level Pressure 30.19 in    
Wind  
Wind Speed 7 mph ()    
Max Wind Speed 17 mph    
Max Gust Speed 23 mph    
Visibility 10.0 miles    
Events      
T = Trace of Precipitation, MM = Missing Value Source: Averaged Metar Reports

Daily Weather History Graph

Daily Weather History Graph

Search for Another Location

Airport or City:

Astronomy

Sep. 10, 2019 Rise Set
Actual Time 6:55 AM EDT 7:39 PM EDT
Civil Twilight 6:27 AM EDT 8:07 PM EDT
Nautical Twilight 5:53 AM EDT 8:41 PM EDT
Astronomical Twilight 5:18 AM EDT 9:15 PM EDT
Moon 6:18 PM EDT (9/10) 3:15 AM EDT (9/10)
Length of Visible Light 13h 40m
Length of Day
12h 44m
Waxing Gibbous, 89% of the Moon is Illuminated
Sep 10
Waxing Gibbous
Sep 14
Full
Sep 21
Last Quarter
Sep 28
New
Oct 5
First Quarter

Hourly Weather History & Observations

Time (EDT) Temp. Heat Index Dew Point Humidity Pressure Visibility Wind Dir Wind Speed Gust Speed Precip Events Conditions
12:51 AM 57.0 °F - 50.0 °F 77% 30.27 in 10.0 mi SSE 3.5 mph - N/A   Clear
1:51 AM 59.0 °F - 50.0 °F 72% 30.27 in 10.0 mi Calm Calm - N/A   Clear
2:51 AM 59.0 °F - 51.1 °F 75% 30.27 in 10.0 mi Calm Calm - N/A   Clear
3:51 AM 59.0 °F - 52.0 °F 78% 30.24 in 10.0 mi South 5.8 mph - N/A   Clear
4:51 AM 59.0 °F - 52.0 °F 78% 30.24 in 10.0 mi SSE 8.1 mph - N/A   Clear
5:51 AM 60.1 °F - 52.0 °F 75% 30.22 in 10.0 mi SSE 8.1 mph - N/A   Clear
6:51 AM 60.1 °F - 52.0 °F 75% 30.24 in 10.0 mi South 9.2 mph - N/A   Clear
7:51 AM 63.0 °F - 53.1 °F 70% 30.24 in 10.0 mi SSE 12.7 mph - N/A   Clear
8:51 AM 68.0 °F - 54.0 °F 61% 30.24 in 10.0 mi South 11.5 mph - N/A   Clear
9:51 AM 72.0 °F - 57.0 °F 59% 30.23 in 10.0 mi South 11.5 mph - N/A   Clear
10:51 AM 77.0 °F - 59.0 °F 54% 30.21 in 10.0 mi South 10.4 mph - N/A   Clear
11:51 AM 80.1 °F 80.9 °F 60.1 °F 50% 30.21 in 10.0 mi SSW 12.7 mph - N/A   Clear
12:51 PM 82.9 °F 83.3 °F 61.0 °F 47% 30.20 in 10.0 mi SSW 11.5 mph - N/A   Clear
1:51 PM 82.9 °F 83.7 °F 62.1 °F 49% 30.20 in 10.0 mi SW 10.4 mph - N/A   Clear
2:51 PM 82.0 °F 83.0 °F 62.1 °F 51% 30.18 in 10.0 mi SSW 11.5 mph - N/A   Clear
3:51 PM 84.9 °F 86.1 °F 64.0 °F 49% 30.17 in 10.0 mi SSW 8.1 mph - N/A   Clear
4:51 PM 84.0 °F 84.9 °F 63.0 °F 49% 30.16 in 10.0 mi SSW 6.9 mph - N/A   Clear
5:51 PM 86.0 °F 87.3 °F 64.0 °F 48% 30.13 in 10.0 mi South 9.2 mph - N/A   Clear
6:51 PM 82.9 °F 84.4 °F 64.0 °F 53% 30.12 in 10.0 mi South 10.4 mph - N/A   Clear
7:51 PM 79.0 °F - 64.0 °F 60% 30.11 in 10.0 mi South 11.5 mph - N/A   Clear
8:51 PM 77.0 °F - 64.0 °F 64% 30.10 in 10.0 mi South 9.2 mph - N/A   Clear
9:51 PM 77.0 °F - 64.9 °F 66% 30.10 in 10.0 mi South 10.4 mph - N/A   Clear
10:51 PM 75.9 °F - 64.0 °F 67% 30.10 in 10.0 mi South 10.4 mph - N/A   Clear
11:51 PM 78.1 °F - 63.0 °F 60% 30.09 in 10.0 mi South 12.7 mph - N/A   Clear